TimeMDT,TemperatureF,Dew PointF,Humidity,Sea Level PressureIn,VisibilityMPH,Wind Direction,Wind SpeedMPH,Gust SpeedMPH,PrecipitationIn,Events,Conditions,WindDirDegrees,DateUTC
12:53 AM,77.0,60.1,56,29.77,10.0,SSW,8.1,-,N/A,,Clear,210,2013-08-24 06:53:00
1:53 AM,75.0,54.0,48,29.78,10.0,SSW,10.4,-,N/A,,Clear,200,2013-08-24 07:53:00
2:53 AM,72.0,54.0,53,29.77,10.0,Calm,Calm,-,N/A,,Clear,0,2013-08-24 08:53:00
3:53 AM,66.0,55.0,68,29.79,10.0,WSW,6.9,-,N/A,,Clear,250,2013-08-24 09:53:00
4:53 AM,63.0,54.0,72,29.81,10.0,WSW,8.1,-,N/A,,Clear,250,2013-08-24 10:53:00
5:53 AM,60.1,53.1,78,29.83,10.0,West,6.9,-,N/A,,Clear,270,2013-08-24 11:53:00
6:53 AM,66.0,52.0,60,29.85,10.0,WSW,6.9,-,N/A,,Clear,240,2013-08-24 12:53:00
7:53 AM,73.0,54.0,51,29.86,10.0,SW,6.9,-,N/A,,Clear,230,2013-08-24 13:53:00
8:53 AM,81.0,54.0,39,29.84,10.0,WSW,9.2,-,N/A,,Clear,240,2013-08-24 14:53:00
9:53 AM,87.1,52.0,30,29.84,10.0,SW,6.9,-,N/A,,Clear,230,2013-08-24 15:53:00
10:53 AM,90.0,51.1,26,29.84,10.0,Variable,5.8,-,N/A,,Clear,0,2013-08-24 16:53:00
11:53 AM,91.9,51.1,25,29.83,10.0,SW,8.1,-,N/A,,Clear,230,2013-08-24 17:53:00
12:53 PM,93.9,48.9,21,29.81,10.0,North,4.6,-,N/A,,Clear,360,2013-08-24 18:53:00
1:53 PM,95.0,48.0,20,29.81,10.0,Calm,Calm,-,N/A,,Clear,0,2013-08-24 19:53:00
2:53 PM,93.9,48.9,21,29.79,10.0,Variable,3.5,-,N/A,,Partly Cloudy,0,2013-08-24 20:53:00
3:53 PM,95.0,48.9,21,29.78,10.0,ESE,3.5,-,N/A,,Partly Cloudy,120,2013-08-24 21:53:00
4:53 PM,96.1,50.0,21,29.78,10.0,SSE,6.9,-,N/A,,Partly Cloudy,150,2013-08-24 22:53:00
5:53 PM,93.9,48.9,21,29.79,10.0,WSW,5.8,-,N/A,,Partly Cloudy,250,2013-08-24 23:53:00
6:53 PM,93.0,51.1,24,29.78,10.0,West,8.1,-,N/A,,Partly Cloudy,260,2013-08-25 00:53:00
7:53 PM,84.0,52.0,33,29.81,10.0,SSW,5.8,-,N/A,,Scattered Clouds,210,2013-08-25 01:53:00
8:53 PM,80.1,53.1,39,29.84,10.0,West,3.5,-,N/A,,Mostly Cloudy,270,2013-08-25 02:53:00
9:53 PM,73.9,53.1,48,29.84,10.0,Calm,Calm,-,N/A,,Clear,0,2013-08-25 03:53:00
10:53 PM,72.0,51.1,48,29.85,10.0,Calm,Calm,-,N/A,,Clear,0,2013-08-25 04:53:00
11:53 PM,72.0,53.1,51,29.86,10.0,Calm,Calm,-,N/A,,Clear,0,2013-08-25 05:53:00